This is the latest recevied weather packets stored in our database for station/object NO3U. If no packets are shown the sender has not sent any weather packets the latest 10 day(s).
| Time | Temp. | Humidity | Pressure | Rain* | Wind** | Luminosity | Snow |
|---|---|---|---|---|---|---|---|
| 1777212270 | 10° C | 93% | 1020.7 hPa | 0 mm | - | 180 W/m² | - |
| 1777211965 | 9.44° C | 93% | 1020.8 hPa | 0 mm | - | 127 W/m² | - |
| 1777211660 | 9.44° C | 93% | 1020.7 hPa | 0 mm | - | 105 W/m² | - |
| 1777211356 | 9.44° C | 93% | 1020.7 hPa | 0 mm | - | 103 W/m² | - |
| 1777211052 | 9.44° C | 94% | 1020.7 hPa | 0 mm | - | 96 W/m² | - |
| 1777210749 | 9.44° C | 93% | 1020.6 hPa | 0 mm | - | 83 W/m² | - |
| 1777210442 | 8.89° C | 93% | 1020.6 hPa | 0 mm | - | 79 W/m² | - |
| 1777210139 | 9.44° C | 92% | 1020.6 hPa | 0 mm | - | 73 W/m² | - |
| 1777209836 | 9.44° C | 92% | 1020.6 hPa | 0 mm | - | 52 W/m² | - |
| 1777209531 | 8.89° C | 92% | 1020.6 hPa | 0 mm | - | 54 W/m² | - |
| 1777209227 | 9.44° C | 92% | 1020.5 hPa | 0 mm | - | 75 W/m² | - |
| 1777208924 | 8.89° C | 93% | 1020.6 hPa | 0 mm | - | 98 W/m² | - |
| 1777208615 | 8.89° C | 93% | 1020.5 hPa | 0 mm | - | 86 W/m² | - |
| 1777208311 | 8.89° C | 93% | 1020.6 hPa | 0 mm | - | 60 W/m² | - |
| 1777208007 | 8.89° C | 93% | 1020.6 hPa | 0 mm | - | 70 W/m² | - |
| 1777207703 | 8.89° C | 93% | 1020.6 hPa | 0 mm | - | 81 W/m² | - |
| 1777207398 | 8.89° C | 93% | 1020.4 hPa | 0 mm | - | 72 W/m² | - |
| 1777207098 | 8.89° C | 93% | 1020.3 hPa | 0 mm | - | 67 W/m² | - |
| 1777206794 | 8.89° C | 93% | 1020.2 hPa | 0 mm | - | 58 W/m² | - |
| 1777206494 | 8.33° C | 94% | 1020.2 hPa | 0 mm | - | 53 W/m² | - |
| 1777206189 | 8.33° C | 94% | 1020.1 hPa | 0 mm | - | 42 W/m² | - |
| 1777205885 | 8.33° C | 94% | 1020.1 hPa | 0 mm | - | 41 W/m² | - |
| 1777205581 | 8.33° C | 95% | 1020 hPa | 0 mm | - | 44 W/m² | - |
| 1777205278 | 8.33° C | 95% | 1019.9 hPa | 0 mm | - | 40 W/m² | - |
| 1777204979 | 7.78° C | 95% | 1019.9 hPa | 0 mm | - | 45 W/m² | - |
* Rain latest hour (hover to see other rain measurements)
** Current wind speed in m/s (hover to see current wind gust speed)